TimeHST,TemperatureF,Dew PointF,Humidity,Sea Level PressureIn,VisibilityMPH,Wind Direction,Wind SpeedMPH,Gust SpeedMPH,PrecipitationIn,Events,Conditions,WindDirDegrees,DateUTC
12:03 AM,68.0,64.9,90,30.07,2.5,SSW,8.1,-,0.11,Rain,Heavy Rain,210,2013-06-08 10:03:00
12:11 AM,69.1,64.9,87,30.06,5.0,WSW,8.1,-,0.16,Rain,Light Rain,240,2013-06-08 10:11:00
12:53 AM,69.1,66.0,90,30.04,10.0,SW,5.8,-,0.17,,Overcast,220,2013-06-08 10:53:00
1:53 AM,69.1,64.9,87,30.03,10.0,WSW,5.8,-,N/A,,Overcast,240,2013-06-08 11:53:00
2:53 AM,69.1,63.0,81,30.01,10.0,WSW,8.1,-,N/A,,Mostly Cloudy,240,2013-06-08 12:53:00
3:53 AM,69.1,63.0,81,30.00,10.0,WSW,6.9,-,N/A,,Overcast,240,2013-06-08 13:53:00
4:53 AM,69.1,63.0,81,30.01,10.0,SW,3.5,-,N/A,,Overcast,230,2013-06-08 14:53:00
5:53 AM,69.1,64.0,84,30.02,10.0,West,3.5,-,N/A,,Mostly Cloudy,270,2013-06-08 15:53:00
6:53 AM,71.1,66.0,84,30.04,10.0,West,5.8,-,0.00,,Mostly Cloudy,260,2013-06-08 16:53:00
7:53 AM,71.1,66.9,87,30.07,4.0,SSE,4.6,-,0.04,Rain,Light Rain,150,2013-06-08 17:53:00
8:01 AM,70.0,66.0,87,30.07,5.0,WSW,4.6,-,0.02,Rain,Light Rain,240,2013-06-08 18:01:00
8:08 AM,71.1,66.9,87,30.06,8.0,WSW,8.1,-,0.02,Rain,Light Rain,240,2013-06-08 18:08:00
8:53 AM,73.0,66.9,81,30.07,10.0,WSW,9.2,-,0.03,,Overcast,250,2013-06-08 18:53:00
9:53 AM,78.1,66.0,66,30.05,10.0,West,6.9,-,N/A,,Mostly Cloudy,270,2013-06-08 19:53:00
10:53 AM,81.0,64.9,58,30.04,10.0,Variable,5.8,-,N/A,,Scattered Clouds,0,2013-06-08 20:53:00
11:53 AM,80.1,64.9,60,30.04,10.0,NE,9.2,-,N/A,,Mostly Cloudy,40,2013-06-08 21:53:00
12:53 PM,82.9,66.0,56,30.03,10.0,ENE,9.2,-,N/A,,Mostly Cloudy,70,2013-06-08 22:53:00
1:53 PM,80.1,64.0,58,30.02,10.0,ENE,9.2,-,N/A,,Mostly Cloudy,70,2013-06-08 23:53:00
2:53 PM,81.0,64.9,58,30.01,10.0,East,11.5,-,N/A,,Mostly Cloudy,80,2013-06-09 00:53:00
3:53 PM,82.0,64.9,56,30.00,10.0,NNE,10.4,-,N/A,,Scattered Clouds,30,2013-06-09 01:53:00
4:31 PM,80.1,64.9,60,30.00,10.0,ENE,6.9,-,N/A,,Mostly Cloudy,60,2013-06-09 02:31:00
4:53 PM,80.1,64.9,60,30.00,10.0,ENE,6.9,-,N/A,,Mostly Cloudy,70,2013-06-09 02:53:00
5:53 PM,77.0,64.0,64,30.02,10.0,ENE,5.8,-,N/A,,Scattered Clouds,70,2013-06-09 03:53:00
6:53 PM,75.0,64.9,71,30.04,10.0,NE,3.5,-,N/A,,Clear,50,2013-06-09 04:53:00
7:53 PM,73.0,66.0,79,30.05,10.0,Calm,Calm,-,N/A,,Clear,0,2013-06-09 05:53:00
8:53 PM,72.0,66.9,84,30.07,10.0,Calm,Calm,-,N/A,,Scattered Clouds,0,2013-06-09 06:53:00
9:53 PM,71.1,64.9,81,30.09,10.0,WSW,6.9,-,0.00,,Scattered Clouds,240,2013-06-09 07:53:00
10:11 PM,71.1,66.9,87,30.10,5.0,SE,4.6,-,0.00,Rain,Rain,130,2013-06-09 08:11:00
10:18 PM,71.1,66.0,84,30.10,5.0,SW,5.8,-,0.01,Rain,Light Rain,220,2013-06-09 08:18:00
10:53 PM,71.1,66.9,87,30.10,10.0,WSW,4.6,-,0.02,,Overcast,240,2013-06-09 08:53:00
11:42 PM,70.0,66.0,87,30.10,10.0,SSE,5.8,-,0.00,,Overcast,150,2013-06-09 09:42:00
11:53 PM,70.0,66.0,87,30.09,10.0,SW,6.9,-,0.00,Rain,Light Rain,220,2013-06-09 09:53:00